Weather History for Clarksville, TN

Change the Weather History Date:

Friday, May 3, 2013

  Actual Average Record
Temperature  
Mean Temperature 60 °F -  
Max Temperature 75 °F - 90 °F (1955)
Min Temperature 46 °F - 34 °F (1971)
Degree Days  
Heating Degree Days 6    
Month to date heating degree days  
Since 1 July heating degree days  
Cooling Degree Days 0    
Month to date cooling degree days  
Growing Degree Days 10 (Base 50)    
Moisture  
Dew Point 54 °F    
Average Humidity 75    
Maximum Humidity 96    
Minimum Humidity 51    
Precipitation  
Precipitation 0.13 in - 2.19 in (1993)
Month to date precipitation  
Sea Level Pressure  
Sea Level Pressure 29.92 in    
Wind  
Wind Speed 8 mph (SSE)    
Max Wind Speed 22 mph    
Max Gust Speed 33 mph    
Visibility 9 miles    
Events Rain    
T = Trace of Precipitation, MM = Missing Value Source: NWS Daily Summary

Daily Weather History Graph

Daily Weather History Graph

Search for Another Location

Airport:

Trip Planner

Search our weather history database for the weather conditions in past years. The results will help you decide how hot, cold, wet, or windy it might be!

Date:

Astronomy

May. 03, 2013 Rise Set
Actual Time 5:53 AM CDT 7:39 PM CDT
Civil Twilight 5:25 AM CDT 8:07 PM CDT
Nautical Twilight 4:51 AM CDT 8:41 PM CDT
Astronomical Twilight 4:16 AM CDT 9:17 PM CDT
Moon 2:07 AM CDT (5/3) 1:43 PM CDT (5/3)
Length of Visible Light 14h 42m
Length of Day
13h 46m
Last Quarter, 37% of the Moon is Illuminated
May 3
Last Quarter
May 9
New
May 17
First Quarter
May 24
Full
May 31
Last Quarter

Hourly Weather History & Observations

Time (CDT) Temp. Windchill Dew Point Humidity Pressure Visibility Wind Dir Wind Speed Gust Speed Precip Events Conditions
12:52 AM 64.0 °F - 61.0 °F 90% 30.04 in 10.0 mi Calm Calm - 0.00 in   Overcast
1:52 AM 64.0 °F - 61.0 °F 90% 30.01 in 10.0 mi ESE 3.5 mph - N/A   Scattered Clouds
2:52 AM 64.0 °F - 60.1 °F 87% 29.99 in 10.0 mi SE 4.6 mph - N/A   Mostly Cloudy
3:52 AM 62.1 °F - 57.0 °F 84% 29.99 in 10.0 mi SE 5.8 mph - N/A   Mostly Cloudy
4:52 AM 62.1 °F - 55.9 °F 80% 29.99 in 10.0 mi SE 6.9 mph - N/A   Overcast
5:52 AM 62.1 °F - 55.9 °F 80% 29.98 in 10.0 mi SE 6.9 mph - N/A   Overcast
6:52 AM 62.1 °F - 55.9 °F 80% 29.98 in 10.0 mi SE 8.1 mph - N/A   Overcast
7:52 AM 64.0 °F - 55.9 °F 75% 29.98 in 10.0 mi SE 10.4 mph - N/A   Partly Cloudy
9:52 AM 66.9 °F - 55.0 °F 66% 29.95 in 10.0 mi SSE 16.1 mph 27.6 mph N/A   Mostly Cloudy
11:52 AM 73.0 °F - 57.0 °F 57% 29.91 in 10.0 mi SSE 12.7 mph 25.3 mph N/A   Scattered Clouds
12:52 PM 73.9 °F - 55.0 °F 52% 29.88 in 10.0 mi SSE 18.4 mph 29.9 mph N/A   Mostly Cloudy
1:52 PM 73.9 °F - 55.0 °F 52% 29.87 in 10.0 mi SSE 15.0 mph 28.8 mph N/A   Scattered Clouds
2:52 PM 73.9 °F - 57.0 °F 55% 29.85 in 10.0 mi SSE 11.5 mph 17.3 mph N/A   Mostly Cloudy
3:52 PM 73.0 °F - 54.0 °F 51% 29.82 in 10.0 mi SSE 21.9 mph 28.8 mph N/A   Partly Cloudy
4:52 PM 73.0 °F - 54.0 °F 51% 29.81 in 10.0 mi SSE 18.4 mph 25.3 mph N/A   Mostly Cloudy
5:52 PM 69.1 °F - 55.9 °F 63% 29.82 in 10.0 mi SE 16.1 mph 33.4 mph 0.00 in Rain Light Rain
6:52 PM 68.0 °F - 52.0 °F 56% 29.82 in 10.0 mi SSE 21.9 mph 28.8 mph 0.00 in   Partly Cloudy
7:52 PM 66.9 °F - 52.0 °F 59% 29.84 in 10.0 mi SSE 20.7 mph 31.1 mph 0.00 in Rain Light Rain
8:52 PM 54.0 °F - 52.0 °F 93% 29.88 in 6.0 mi West 9.2 mph - 0.05 in Rain Light Rain
9:06 PM 53.6 °F - 51.8 °F 94% 29.89 in 10.0 mi West 8.1 mph - 0.00 in Rain Light Rain
9:52 PM 51.1 °F - 50.0 °F 96% 29.91 in 5.0 mi West 8.1 mph - 0.02 in Rain Light Rain
10:52 PM 48.0 °F - 46.0 °F 93% 29.94 in 10.0 mi WSW 9.2 mph - 0.03 in   Overcast
11:48 PM 46.4 °F 43.5 °F 44.6 °F 93% 29.94 in 8.0 mi SW 5.8 mph - 0.03 in Rain Light Rain
11:52 PM 46.0 °F 41.4 °F 44.1 °F 93% 29.94 in 7.0 mi SSW 9.2 mph - 0.03 in Rain Light Rain